QPF
0.07 0.06 0.07 0.09 0.07 0.04 0.02 0.01 0.00 0.00 0.00 0.00 0.00 0.00 0.00 0.00 0.00 0.01 0.01 0.00 0.00 0.01 0.01 0.01 0.01 0.02 0.02 0.03 0.03 0.03 0.03 0.02 0.02 0.02 0.02 0.01 0.01 0.01 0.02 0.02 0.02 0.02 0.02
0.07 0.08 0.07 0.09 0.09 0.05 0.02 0.01 0.00 0.00 0.00 0.00 0.00 0.00 0.00 0.00 0.00 0.00 0.01 0.01 0.01 0.01 0.01 0.01 0.01 0.01 0.02 0.02 0.02 0.02 0.03 0.04 0.03 0.02 0.02 0.02 0.02 0.02 0.02 0.02 0.02 0.02 0.02
0.09 0.09 0.09 0.07 0.10 0.08 0.03 0.01 0.01 0.00 0.00 0.00 0.00 0.00 0.00 0.00 0.00 0.00 0.00 0.01 0.01 0.01 0.01 0.01 0.01 0.01 0.01 0.02 0.01 0.01 0.02 0.03 0.03 0.03 0.02 0.02 0.01 0.01 0.01 0.02 0.02 0.02 0.02
0.12 0.10 0.10 0.09 0.09 0.11 0.07 0.02 0.01 0.00 0.00 0.00 0.00 0.00 0.00 0.00 0.00 0.00 0.00 0.01 0.01 0.01 0.01 0.00 0.00 0.01 0.01 0.01 0.01 0.02 0.01 0.02 0.03 0.02 0.02 0.01 0.01 0.01 0.02 0.02 0.02 0.02 0.02
0.11 0.11 0.12 0.12 0.11 0.12 0.10 0.05 0.02 0.01 0.00 0.00 0.00 0.00 0.00 0.00 0.00 0.00 0.00 0.01 0.01 0.01 0.01 0.01 0.01 0.01 0.01 0.01 0.01 0.02 0.01 0.01 0.02 0.02 0.01 0.01 0.01 0.01 0.02 0.02 0.02 0.02 0.02
0.09 0.10 0.11 0.13 0.12 0.12 0.12 0.06 0.03 0.02 0.01 0.01 0.01 0.01 0.01 0.01 0.01 0.01 0.01 0.01 0.01 0.01 0.01 0.01 0.01 0.01 0.02 0.01 0.01 0.02 0.02 0.01 0.02 0.02 0.02 0.01 0.01 0.02 0.02 0.02 0.02 0.02 0.02
0.10 0.11 0.12 0.14 0.12 0.10 0.10 0.06 0.03 0.02 0.01 0.01 0.01 0.01 0.01 0.01 0.01 0.01 0.01 0.01 0.01 0.01 0.01 0.01 0.01 0.01 0.02 0.02 0.01 0.02 0.02 0.02 0.01 0.01 0.01 0.01 0.01 0.02 0.02 0.02 0.03 0.03 0.03
0.09 0.12 0.15 0.17 0.15 0.11 0.09 0.07 0.04 0.03 0.02 0.01 0.02 0.02 0.02 0.03 0.02 0.02 0.01 0.01 0.01 0.01 0.01 0.01 0.01 0.01 0.02 0.02 0.01 0.01 0.01 0.01 0.01 0.01 0.01 0.01 0.01 0.02 0.02 0.03 0.03 0.03 0.03
0.07 0.08 0.11 0.15 0.20 0.18 0.13 0.08 0.05 0.03 0.02 0.02 0.02 0.02 0.02 0.02 0.02 0.01 0.01 0.01 0.01 0.01 0.01 0.01 0.01 0.01 0.01 0.02 0.02 0.01 0.01 0.01 0.01 0.01 0.01 0.01 0.01 0.02 0.02 0.03 0.03 0.03 0.03
0.07 0.07 0.08 0.10 0.13 0.18 0.17 0.11 0.05 0.03 0.03 0.03 0.02 0.01 0.02 0.02 0.02 0.01 0.00 0.01 0.01 0.02 0.02 0.02 0.01 0.01 0.01 0.02 0.02 0.01 0.00 0.00 0.01 0.01 0.01 0.01 0.01 0.02 0.02 0.03 0.03 0.04 0.04
0.07 0.07 0.07 0.07 0.09 0.13 0.16 0.14 0.09 0.06 0.05 0.03 0.02 0.02 0.02 0.02 0.02 0.01 0.00 0.00 0.01 0.03 0.04 0.03 0.02 0.02 0.01 0.01 0.02 0.02 0.01 0.01 0.00 0.01 0.01 0.01 0.01 0.02 0.02 0.02 0.03 0.03 0.04
0.08 0.07 0.06 0.05 0.06 0.09 0.12 0.14 0.11 0.08 0.07 0.05 0.03 0.02 0.02 0.03 0.03 0.03 0.01 0.01 0.01 0.02 0.03 0.03 0.03 0.02 0.02 0.01 0.02 0.02 0.02 0.01 0.01 0.00 0.01 0.01 0.01 0.01 0.02 0.02 0.02 0.03 0.03
0.09 0.07 0.05 0.05 0.05 0.06 0.09 0.12 0.13 0.11 0.10 0.06 0.04 0.02 0.02 0.02 0.03 0.03 0.02 0.02 0.01 0.02 0.02 0.02 0.02 0.02 0.02 0.02 0.02 0.02 0.02 0.02 0.02 0.01 0.01 0.01 0.01 0.01 0.01 0.01 0.02 0.02 0.03
0.10 0.07 0.05 0.05 0.05 0.05 0.05 0.07 0.10 0.12 0.11 0.08 0.05 0.04 0.03 0.02 0.02 0.03 0.03 0.03 0.02 0.02 0.02 0.02 0.02 0.02 0.02 0.02 0.02 0.02 0.02 0.01 0.01 0.01 0.01 0.01 0.01 0.01 0.01 0.01 0.01 0.02 0.03
0.11 0.10 0.06 0.05 0.04 0.04 0.05 0.05 0.06 0.08 0.08 0.08 0.08 0.05 0.03 0.03 0.03 0.03 0.03 0.03 0.03 0.03 0.02 0.02 0.02 0.01 0.01 0.01 0.02 0.02 0.02 0.02 0.01 0.01 0.01 0.01 0.01 0.01 0.01 0.01 0.01 0.01 0.02
0.14 0.15 0.12 0.07 0.05 0.05 0.05 0.05 0.05 0.05 0.06 0.05 0.05 0.07 0.05 0.03 0.03 0.03 0.04 0.03 0.03 0.03 0.03 0.02 0.02 0.01 0.02 0.02 0.02 0.01 0.01 0.01 0.01 0.01 0.01 0.01 0.01 0.01 0.01 0.01 0.01 0.01 0.01
0.16 0.17 0.16 0.13 0.10 0.08 0.06 0.05 0.05 0.04 0.04 0.03 0.02 0.03 0.04 0.04 0.03 0.04 0.04 0.04 0.04 0.03 0.04 0.03 0.02 0.02 0.02 0.02 0.02 0.01 0.01 0.00 0.00 0.00 0.01 0.01 0.01 0.01 0.01 0.01 0.01 0.01 0.01
0.17 0.17 0.16 0.15 0.13 0.12 0.09 0.06 0.04 0.03 0.03 0.02 0.02 0.02 0.02 0.04 0.04 0.04 0.05 0.05 0.04 0.04 0.03 0.03 0.03 0.03 0.03 0.02 0.02 0.01 0.01 0.01 0.00 0.00 0.00 0.00 0.01 0.01 0.01 0.01 0.01 0.01 0.01
0.11 0.12 0.12 0.12 0.10 0.09 0.09 0.07 0.05 0.03 0.02 0.02 0.02 0.02 0.02 0.03 0.05 0.05 0.04 0.04 0.04 0.04 0.04 0.03 0.02 0.03 0.04 0.03 0.02 0.01 0.01 0.01 0.01 0.00 0.00 0.00 0.00 0.01 0.01 0.01 0.01 0.01 0.01
0.08 0.08 0.08 0.07 0.05 0.04 0.05 0.06 0.06 0.05 0.03 0.03 0.02 0.02 0.03 0.03 0.03 0.03 0.03 0.02 0.03 0.03 0.04 0.03 0.02 0.02 0.03 0.04 0.03 0.02 0.01 0.01 0.01 0.01 0.00 0.00 0.00 0.01 0.02 0.02 0.02 0.02 0.01
0.05 0.05 0.05 0.04 0.04 0.04 0.04 0.05 0.05 0.05 0.05 0.05 0.04 0.03 0.02 0.02 0.01 0.01 0.02 0.02 0.03 0.03 0.03 0.02 0.02 0.02 0.02 0.03 0.03 0.02 0.02 0.01 0.01 0.01 0.01 0.00 0.00 0.01 0.01 0.02 0.02 0.02 0.02
0.05 0.04 0.04 0.04 0.04 0.04 0.05 0.04 0.04 0.04 0.03 0.04 0.04 0.03 0.02 0.01 0.01 0.01 0.01 0.02 0.02 0.02 0.02 0.02 0.02 0.02 0.02 0.02 0.02 0.02 0.02 0.02 0.01 0.01 0.01 0.01 0.01 0.01 0.01 0.01 0.02 0.02 0.03
0.05 0.05 0.05 0.04 0.04 0.03 0.04 0.04 0.04 0.04 0.03 0.03 0.02 0.02 0.02 0.02 0.01 0.01 0.01 0.01 0.01 0.01 0.01 0.01 0.01 0.01 0.02 0.02 0.02 0.02 0.02 0.01 0.01 0.01 0.01 0.01 0.01 0.01 0.01 0.01 0.01 0.02 0.02
0.05 0.05 0.04 0.04 0.03 0.03 0.04 0.03 0.03 0.03 0.03 0.02 0.01 0.01 0.01 0.01 0.01 0.01 0.02 0.02 0.01 0.01 0.01 0.01 0.01 0.01 0.01 0.02 0.02 0.02 0.01 0.01 0.01 0.01 0.01 0.01 0.01 0.01 0.01 0.01 0.01 0.01 0.02
0.05 0.05 0.05 0.04 0.03 0.04 0.04 0.03 0.02 0.02 0.02 0.02 0.01 0.01 0.00 0.00 0.01 0.01 0.01 0.01 0.01 0.01 0.02 0.02 0.02 0.02 0.01 0.01 0.01 0.01 0.01 0.01 0.01 0.00 0.00 0.01 0.01 0.01 0.00 0.00 0.01 0.01 0.01
0.05 0.05 0.05 0.04 0.03 0.03 0.03 0.02 0.01 0.01 0.02 0.01 0.01 0.00 0.01 0.01 0.01 0.01 0.01 0.01 0.01 0.01 0.01 0.01 0.01 0.01 0.01 0.01 0.01 0.01 0.01 0.01 0.01 0.01 0.00 0.01 0.01 0.01 0.01 0.00 0.00 0.00 0.01
MSLP
1024.04 1024.14 1024.17 1024.17 1024.15 1024.16 1024.21 1024.30 1024.43 1024.58 1024.74 1024.90 1025.05 1025.18 1025.29 1025.36 1025.39 1025.38 1025.31 1025.18 1024.98 1024.74 1024.46 1024.17 1023.90 1023.65 1023.44 1023.26 1023.10 1022.94 1022.76 1022.55 1022.30 1022.00 1021.69 1021.36 1021.02 1020.70 1020.37 1020.04 1019.69 1019.31 1018.91
1024.00 1024.09 1024.11 1024.11 1024.11 1024.14 1024.21 1024.32 1024.47 1024.64 1024.82 1024.99 1025.15 1025.28 1025.39 1025.47 1025.52 1025.53 1025.49 1025.38 1025.22 1025.01 1024.76 1024.49 1024.22 1023.96 1023.72 1023.50 1023.30 1023.09 1022.87 1022.62 1022.34 1022.04 1021.73 1021.40 1021.07 1020.74 1020.41 1020.05 1019.68 1019.27 1018.83
1023.90 1023.98 1024.02 1024.04 1024.08 1024.14 1024.24 1024.38 1024.54 1024.73 1024.91 1025.08 1025.24 1025.37 1025.47 1025.56 1025.61 1025.63 1025.61 1025.54 1025.41 1025.24 1025.02 1024.78 1024.52 1024.26 1024.00 1023.75 1023.51 1023.26 1022.99 1022.71 1022.41 1022.09 1021.76 1021.43 1021.09 1020.76 1020.41 1020.04 1019.63 1019.20 1018.74
1023.77 1023.87 1023.94 1024.01 1024.09 1024.19 1024.33 1024.49 1024.68 1024.86 1025.04 1025.19 1025.33 1025.44 1025.54 1025.61 1025.66 1025.69 1025.69 1025.64 1025.55 1025.41 1025.23 1025.01 1024.78 1024.53 1024.27 1024.00 1023.73 1023.44 1023.14 1022.82 1022.48 1022.13 1021.78 1021.43 1021.08 1020.73 1020.36 1019.97 1019.55 1019.09 1018.60
1023.66 1023.79 1023.91 1024.03 1024.16 1024.31 1024.49 1024.67 1024.86 1025.03 1025.18 1025.31 1025.42 1025.51 1025.58 1025.64 1025.69 1025.73 1025.73 1025.71 1025.64 1025.54 1025.39 1025.21 1025.00 1024.77 1024.52 1024.25 1023.96 1023.64 1023.30 1022.94 1022.56 1022.17 1021.78 1021.40 1021.02 1020.64 1020.25 1019.84 1019.40 1018.93 1018.43
1023.58 1023.74 1023.91 1024.09 1024.28 1024.48 1024.68 1024.88 1025.06 1025.21 1025.33 1025.42 1025.50 1025.56 1025.62 1025.67 1025.72 1025.76 1025.78 1025.77 1025.73 1025.65 1025.53 1025.37 1025.19 1024.98 1024.74 1024.47 1024.17 1023.84 1023.47 1023.07 1022.64 1022.21 1021.77 1021.34 1020.92 1020.50 1020.09 1019.66 1019.20 1018.72 1018.21
1023.51 1023.72 1023.94 1024.18 1024.42 1024.66 1024.88 1025.08 1025.24 1025.36 1025.45 1025.51 1025.56 1025.61 1025.66 1025.71 1025.77 1025.82 1025.85 1025.86 1025.83 1025.77 1025.67 1025.54 1025.37 1025.17 1024.94 1024.68 1024.37 1024.02 1023.62 1023.19 1022.72 1022.23 1021.74 1021.26 1020.78 1020.33 1019.88 1019.42 1018.96 1018.47 1017.96
1023.43 1023.68 1023.95 1024.24 1024.53 1024.80 1025.03 1025.22 1025.37 1025.47 1025.53 1025.58 1025.62 1025.66 1025.72 1025.79 1025.87 1025.94 1026.00 1026.02 1026.00 1025.94 1025.85 1025.72 1025.55 1025.36 1025.13 1024.86 1024.55 1024.19 1023.77 1023.30 1022.79 1022.25 1021.71 1021.17 1020.65 1020.14 1019.66 1019.18 1018.70 1018.21 1017.70
1023.32 1023.61 1023.93 1024.26 1024.58 1024.87 1025.11 1025.30 1025.43 1025.52 1025.57 1025.62 1025.67 1025.74 1025.83 1025.94 1026.05 1026.15 1026.23 1026.26 1026.25 1026.18 1026.08 1025.93 1025.75 1025.55 1025.31 1025.04 1024.72 1024.34 1023.90 1023.41 1022.86 1022.29 1021.69 1021.10 1020.53 1019.98 1019.46 1018.95 1018.46 1017.95 1017.44
1023.15 1023.48 1023.84 1024.21 1024.56 1024.87 1025.12 1025.31 1025.44 1025.53 1025.59 1025.65 1025.74 1025.85 1025.98 1026.14 1026.30 1026.44 1026.54 1026.58 1026.57 1026.49 1026.35 1026.18 1025.98 1025.75 1025.49 1025.20 1024.87 1024.48 1024.03 1023.52 1022.94 1022.34 1021.70 1021.07 1020.45 1019.86 1019.29 1018.76 1018.24 1017.72 1017.20
1022.92 1023.30 1023.71 1024.11 1024.49 1024.82 1025.09 1025.29 1025.43 1025.53 1025.62 1025.71 1025.84 1026.00 1026.19 1026.41 1026.61 1026.79 1026.91 1026.95 1026.92 1026.82 1026.66 1026.45 1026.21 1025.94 1025.66 1025.35 1025.00 1024.60 1024.14 1023.61 1023.03 1022.40 1021.74 1021.07 1020.41 1019.78 1019.17 1018.60 1018.05 1017.51 1016.97
1022.66 1023.09 1023.54 1023.98 1024.39 1024.75 1025.04 1025.26 1025.42 1025.54 1025.66 1025.80 1025.97 1026.18 1026.43 1026.69 1026.93 1027.14 1027.27 1027.31 1027.27 1027.14 1026.94 1026.70 1026.41 1026.11 1025.80 1025.46 1025.09 1024.68 1024.22 1023.69 1023.10 1022.45 1021.78 1021.08 1020.39 1019.73 1019.08 1018.47 1017.89 1017.31 1016.73
1022.36 1022.86 1023.36 1023.84 1024.29 1024.68 1024.99 1025.24 1025.43 1025.59 1025.74 1025.92 1026.13 1026.38 1026.65 1026.94 1027.21 1027.42 1027.56 1027.60 1027.54 1027.39 1027.16 1026.88 1026.57 1026.23 1025.89 1025.53 1025.14 1024.72 1024.25 1023.72 1023.13 1022.48 1021.79 1021.08 1020.37 1019.67 1019.00 1018.35 1017.72 1017.10 1016.49
1022.06 1022.62 1023.18 1023.71 1024.19 1024.61 1024.96 1025.24 1025.47 1025.66 1025.84 1026.04 1026.27 1026.53 1026.82 1027.11 1027.38 1027.59 1027.72 1027.75 1027.68 1027.51 1027.27 1026.97 1026.63 1026.28 1025.91 1025.53 1025.13 1024.69 1024.22 1023.68 1023.09 1022.44 1021.75 1021.03 1020.31 1019.58 1018.88 1018.20 1017.53 1016.87 1016.21
1021.76 1022.38 1022.99 1023.57 1024.09 1024.55 1024.93 1025.25 1025.50 1025.72 1025.92 1026.13 1026.36 1026.62 1026.90 1027.17 1027.42 1027.61 1027.72 1027.74 1027.66 1027.49 1027.24 1026.94 1026.60 1026.23 1025.85 1025.46 1025.04 1024.59 1024.11 1023.56 1022.97 1022.32 1021.62 1020.90 1020.17 1019.43 1018.70 1017.99 1017.30 1016.60 1015.91
1021.45 1022.13 1022.78 1023.40 1023.96 1024.45 1024.87 1025.21 1025.50 1025.74 1025.95 1026.16 1026.38 1026.62 1026.86 1027.09 1027.30 1027.46 1027.55 1027.56 1027.48 1027.32 1027.09 1026.80 1026.46 1026.10 1025.72 1025.32 1024.89 1024.42 1023.92 1023.37 1022.76 1022.11 1021.41 1020.69 1019.94 1019.20 1018.46 1017.73 1017.01 1016.29 1015.57
1021.13 1021.84 1022.53 1023.18 1023.76 1024.28 1024.73 1025.10 1025.41 1025.67 1025.90 1026.10 1026.30 1026.51 1026.71 1026.90 1027.06 1027.18 1027.25 1027.25 1027.18 1027.04 1026.83 1026.57 1026.26 1025.91 1025.54 1025.13 1024.69 1024.21 1023.68 1023.11 1022.49 1021.82 1021.12 1020.39 1019.64 1018.89 1018.14 1017.40 1016.67 1015.94 1015.21
1020.78 1021.52 1022.23 1022.88 1023.49 1024.02 1024.50 1024.90 1025.24 1025.52 1025.76 1025.96 1026.15 1026.32 1026.48 1026.62 1026.75 1026.84 1026.88 1026.88 1026.82 1026.70 1026.52 1026.30 1026.02 1025.70 1025.34 1024.93 1024.48 1023.98 1023.43 1022.84 1022.19 1021.51 1020.79 1020.05 1019.29 1018.53 1017.77 1017.02 1016.28 1015.55 1014.81
1020.43 1021.17 1021.87 1022.52 1023.13 1023.68 1024.18 1024.60 1024.97 1025.28 1025.54 1025.76 1025.94 1026.10 1026.22 1026.34 1026.42 1026.48 1026.51 1026.50 1026.45 1026.36 1026.22 1026.03 1025.79 1025.49 1025.15 1024.75 1024.29 1023.78 1023.22 1022.59 1021.93 1021.21 1020.47 1019.71 1018.93 1018.15 1017.38 1016.62 1015.87 1015.13 1014.39
1020.08 1020.80 1021.48 1022.12 1022.73 1023.28 1023.79 1024.25 1024.65 1024.99 1025.29 1025.53 1025.72 1025.87 1025.99 1026.08 1026.14 1026.18 1026.19 1026.18 1026.14 1026.06 1025.95 1025.79 1025.58 1025.32 1025.00 1024.61 1024.16 1023.64 1023.06 1022.42 1021.73 1020.99 1020.21 1019.42 1018.61 1017.81 1017.00 1016.22 1015.44 1014.68 1013.93
1019.76 1020.45 1021.10 1021.72 1022.31 1022.87 1023.39 1023.87 1024.31 1024.70 1025.03 1025.30 1025.53 1025.69 1025.81 1025.89 1025.94 1025.95 1025.95 1025.92 1025.88 1025.82 1025.72 1025.59 1025.42 1025.19 1024.89 1024.53 1024.09 1023.58 1022.99 1022.34 1021.63 1020.86 1020.06 1019.22 1018.37 1017.52 1016.67 1015.84 1015.02 1014.22 1013.45
1019.50 1020.15 1020.77 1021.36 1021.94 1022.49 1023.02 1023.52 1023.99 1024.42 1024.80 1025.12 1025.38 1025.57 1025.70 1025.77 1025.81 1025.81 1025.78 1025.74 1025.69 1025.63 1025.54 1025.43 1025.28 1025.08 1024.82 1024.49 1024.08 1023.59 1023.02 1022.37 1021.64 1020.85 1020.01 1019.14 1018.23 1017.32 1016.41 1015.51 1014.63 1013.78 1012.96
1019.30 1019.92 1020.51 1021.08 1021.64 1022.18 1022.71 1023.23 1023.74 1024.20 1024.62 1024.98 1025.27 1025.49 1025.63 1025.71 1025.74 1025.72 1025.67 1025.61 1025.54 1025.47 1025.38 1025.29 1025.16 1024.99 1024.77 1024.48 1024.11 1023.65 1023.11 1022.47 1021.75 1020.94 1020.08 1019.16 1018.20 1017.22 1016.23 1015.25 1014.30 1013.38 1012.50
1019.17 1019.77 1020.34 1020.89 1021.43 1021.96 1022.50 1023.03 1023.54 1024.03 1024.49 1024.88 1025.20 1025.44 1025.59 1025.67 1025.69 1025.65 1025.58 1025.50 1025.40 1025.31 1025.22 1025.13 1025.03 1024.89 1024.71 1024.47 1024.15 1023.74 1023.23 1022.62 1021.91 1021.11 1020.22 1019.26 1018.26 1017.21 1016.15 1015.09 1014.05 1013.05 1012.09
1019.09 1019.68 1020.24 1020.78 1021.31 1021.83 1022.36 1022.88 1023.41 1023.91 1024.38 1024.78 1025.12 1025.38 1025.54 1025.63 1025.63 1025.58 1025.49 1025.38 1025.26 1025.15 1025.06 1024.97 1024.88 1024.78 1024.63 1024.43 1024.16 1023.80 1023.34 1022.77 1022.08 1021.29 1020.39 1019.42 1018.37 1017.27 1016.14 1015.01 1013.90 1012.82 1011.79
1019.03 1019.63 1020.19 1020.73 1021.24 1021.76 1022.27 1022.79 1023.30 1023.80 1024.27 1024.69 1025.03 1025.30 1025.47 1025.55 1025.55 1025.49 1025.38 1025.25 1025.12 1025.00 1024.90 1024.81 1024.73 1024.65 1024.54 1024.37 1024.14 1023.82 1023.40 1022.86 1022.21 1021.43 1020.55 1019.56 1018.50 1017.37 1016.20 1015.01 1013.84 1012.70 1011.61
Thickness
5656 5656 5655 5654 5653 5654 5654 5653 5652 5652 5652 5652 5652 5652 5651 5650 5649 5649 5649 5648 5647 5647 5646 5644 5643 5641 5639 5637 5635 5633 5631 5629 5627 5625 5624 5622 5621 5619 5617 5616 5614 5612 5610
5650 5649 5649 5647 5647 5647 5647 5646 5645 5644 5644 5644 5644 5645 5644 5643 5642 5642 5641 5641 5640 5640 5639 5637 5636 5634 5632 5630 5628 5626 5624 5622 5620 5619 5617 5615 5614 5612 5610 5608 5606 5604 5602
5643 5643 5642 5641 5640 5640 5639 5638 5637 5636 5636 5636 5636 5636 5636 5636 5635 5635 5634 5634 5633 5632 5631 5629 5628 5626 5624 5622 5621 5619 5617 5615 5614 5612 5610 5608 5606 5604 5602 5600 5598 5595 5593
5635 5636 5635 5634 5633 5632 5632 5631 5629 5628 5627 5627 5627 5627 5628 5628 5628 5627 5626 5626 5625 5624 5623 5621 5620 5618 5616 5615 5613 5611 5610 5608 5606 5604 5603 5601 5599 5596 5594 5592 5590 5587 5585
5628 5628 5628 5628 5627 5626 5625 5624 5622 5620 5619 5618 5618 5618 5619 5619 5620 5619 5619 5618 5617 5616 5615 5613 5612 5610 5608 5607 5605 5604 5602 5601 5599 5597 5595 5592 5590 5588 5586 5584 5581 5579 5576
5619 5620 5621 5620 5619 5619 5617 5616 5614 5612 5611 5610 5610 5610 5610 5610 5611 5611 5611 5610 5609 5608 5607 5605 5604 5602 5600 5599 5597 5596 5595 5593 5591 5589 5586 5584 5582 5579 5577 5575 5572 5570 5567
5611 5612 5612 5612 5611 5610 5609 5608 5606 5604 5601 5601 5599 5598 5600 5602 5603 5603 5602 5602 5601 5600 5599 5597 5595 5594 5592 5590 5589 5588 5586 5585 5583 5580 5578 5575 5573 5570 5568 5566 5563 5561 5558
5603 5604 5605 5605 5604 5602 5600 5600 5598 5595 5593 5592 5590 5588 5588 5590 5593 5594 5594 5593 5593 5592 5590 5589 5588 5586 5584 5582 5580 5579 5577 5576 5574 5571 5569 5566 5564 5561 5559 5556 5554 5551 5549
5594 5596 5596 5597 5596 5596 5594 5593 5591 5589 5586 5583 5584 5583 5580 5581 5581 5583 5584 5584 5583 5582 5582 5581 5579 5577 5575 5573 5572 5570 5568 5566 5564 5562 5560 5557 5555 5552 5549 5547 5544 5542 5539
5586 5587 5588 5588 5588 5588 5586 5585 5584 5582 5580 5577 5575 5575 5575 5574 5572 5573 5574 5574 5574 5573 5572 5572 5570 5568 5566 5564 5563 5561 5559 5557 5555 5553 5551 5548 5546 5543 5540 5537 5534 5532 5529
5576 5577 5578 5579 5579 5579 5578 5577 5576 5574 5573 5572 5570 5568 5566 5564 5563 5563 5564 5563 5563 5564 5563 5562 5560 5559 5557 5555 5553 5552 5550 5548 5546 5544 5541 5539 5536 5533 5531 5528 5525 5522 5519
5566 5567 5568 5569 5569 5570 5569 5569 5568 5567 5566 5564 5563 5561 5559 5558 5556 5554 5554 5553 5552 5553 5553 5552 5551 5550 5548 5546 5544 5543 5541 5539 5537 5535 5532 5529 5526 5524 5521 5518 5515 5512 5510
5556 5556 5558 5559 5560 5561 5560 5559 5559 5558 5557 5556 5554 5553 5552 5550 5549 5547 5546 5543 5542 5542 5543 5542 5541 5540 5539 5537 5536 5534 5533 5530 5528 5525 5522 5520 5516 5513 5511 5508 5505 5503 5500
5545 5547 5548 5549 5551 5551 5551 5551 5550 5549 5547 5546 5545 5543 5542 5541 5540 5539 5537 5534 5532 5531 5532 5532 5531 5530 5529 5527 5526 5525 5523 5521 5518 5516 5513 5510 5507 5504 5501 5498 5495 5493 5491
5536 5538 5538 5539 5540 5541 5542 5542 5541 5540 5538 5535 5534 5533 5532 5530 5530 5529 5528 5526 5524 5523 5523 5522 5521 5521 5519 5518 5517 5516 5514 5512 5509 5507 5504 5501 5498 5495 5492 5489 5486 5483 5481
5527 5528 5529 5530 5530 5532 5532 5532 5531 5530 5528 5525 5523 5522 5521 5520 5519 5519 5518 5517 5515 5514 5513 5512 5511 5511 5510 5508 5507 5506 5504 5502 5500 5497 5495 5492 5490 5486 5483 5480 5477 5475 5472
5518 5519 5520 5520 5521 5521 5522 5522 5520 5520 5517 5514 5512 5511 5510 5510 5509 5508 5507 5507 5505 5504 5502 5502 5501 5501 5500 5499 5498 5497 5495 5493 5490 5488 5486 5484 5481 5477 5474 5471 5468 5466 5464
5508 5509 5510 5511 5512 5512 5512 5512 5510 5509 5507 5504 5502 5501 5500 5500 5499 5498 5498 5496 5495 5494 5493 5492 5491 5490 5490 5489 5489 5487 5486 5484 5481 5479 5477 5474 5472 5469 5466 5463 5461 5459 5456
5499 5500 5501 5502 5502 5502 5502 5502 5500 5498 5496 5494 5492 5491 5490 5490 5489 5488 5487 5487 5485 5485 5483 5482 5481 5480 5480 5479 5478 5477 5476 5474 5472 5469 5467 5465 5462 5460 5458 5456 5453 5451 5449
5490 5490 5491 5492 5492 5492 5492 5492 5490 5488 5486 5485 5483 5482 5482 5481 5481 5479 5479 5477 5477 5475 5473 5472 5471 5470 5469 5468 5467 5465 5465 5464 5462 5460 5457 5455 5453 5451 5449 5448 5446 5444 5442
5479 5481 5482 5482 5483 5482 5483 5483 5481 5479 5477 5475 5473 5473 5472 5472 5472 5472 5471 5469 5468 5466 5464 5463 5462 5460 5459 5457 5456 5454 5453 5452 5452 5450 5447 5446 5444 5443 5441 5439 5437 5436 5435
5468 5470 5472 5472 5473 5473 5474 5474 5473 5470 5467 5465 5464 5463 5463 5463 5463 5463 5462 5461 5460 5458 5456 5454 5452 5451 5449 5448 5447 5445 5442 5442 5442 5440 5437 5437 5435 5434 5433 5431 5429 5428 5428
5458 5460 5461 5462 5463 5464 5464 5464 5463 5460 5457 5456 5454 5453 5453 5453 5452 5452 5451 5451 5450 5450 5448 5445 5443 5442 5441 5440 5438 5436 5433 5431 5429 5429 5427 5428 5427 5425 5425 5424 5422 5421 5420
5448 5449 5450 5451 5453 5453 5454 5454 5452 5449 5447 5446 5444 5443 5443 5443 5442 5441 5441 5440 5439 5438 5437 5436 5435 5434 5433 5432 5430 5428 5425 5423 5422 5420 5418 5418 5418 5417 5419 5417 5416 5415 5413
5437 5439 5440 5441 5442 5442 5443 5443 5442 5439 5437 5435 5434 5434 5434 5433 5434 5432 5431 5429 5428 5428 5428 5427 5426 5425 5423 5422 5421 5419 5417 5416 5415 5413 5410 5408 5409 5409 5411 5411 5409 5408 5406
5428 5429 5429 5429 5430 5431 5432 5431 5431 5429 5427 5425 5425 5425 5425 5425 5424 5423 5421 5420 5419 5418 5417 5416 5415 5414 5413 5412 5411 5409 5408 5406 5405 5404 5403 5400 5399 5398 5401 5403 5402 5401 5400